Weather History for KSLK - December, 2012

Change the Weather History Date:

Thursday, December 20, 2012

  Actual Average Record
Temperature  
Mean Temperature 28 °F 17 °F  
Max Temperature 34 °F 27 °F 53 °F (1988)
Min Temperature 21 °F 7 °F -27 °F (1975)
Degree Days  
Heating Degree Days 37 48  
Month to date heating degree days 699 881  
Since 1 July heating degree days 2862 3156  
Cooling Degree Days 0 0  
Month to date cooling degree days 0  
Year to date cooling degree days 114  
Moisture  
Dew Point 22 °F    
Average Humidity 80    
Maximum Humidity 96    
Minimum Humidity 64    
Precipitation  
Precipitation T in 0.07 in 0.39 in (2013)
Month to date precipitation 2.06 1.59  
Year to date precipitation 33.01 36.82  
Sea Level Pressure  
Sea Level Pressure 30.06 in    
Wind  
Wind Speed 6 mph (SSE)    
Max Wind Speed 26 mph    
Max Gust Speed 35 mph    
Visibility 10 miles    
Events      
T = Trace of Precipitation, MM = Missing Value Source: NWS Daily Summary

Daily Weather History Graph

Daily Weather History Graph

Search for Another Location

Airport or City:

Trip Planner

Search our weather history database for the weather conditions in past years. The results will help you decide how hot, cold, wet, or windy it might be!

Date:

Astronomy

Dec. 20, 2012 Rise Set
Actual Time 7:29 AM EST 4:19 PM EST
Civil Twilight 6:56 AM EST 4:53 PM EST
Nautical Twilight 6:19 AM EST 5:30 PM EST
Astronomical Twilight 5:43 AM EST 6:05 PM EST
Moon 11:48 AM EST (12/20) 12:01 AM EST (12/20)
Length of Visible Light 9h 57m
Length of Day
8h 50m
First Quarter, 55% of the Moon is Illuminated
Dec 20
First Quarter
Dec 28
Full
Jan 4
Last Quarter
Jan 11
New
Jan 18
First Quarter

Hourly Weather History & Observations

Time (EST) Temp. Windchill Dew Point Humidity Pressure Visibility Wind Dir Wind Speed Gust Speed Precip Events Conditions
12:13 AM 26.6 °F 22.6 °F 23.0 °F 86% 30.06 in 10.0 mi Variable 3.5 mph - N/A   Overcast
12:51 AM 25.0 °F 19.3 °F 21.9 °F 88% 30.14 in 10.0 mi West 4.6 mph - N/A   Overcast
1:11 AM 24.8 °F 20.5 °F 23.0 °F 93% 30.08 in 10.0 mi Variable 3.5 mph - N/A   Overcast
1:41 AM 24.8 °F 20.5 °F 21.2 °F 86% 30.08 in 10.0 mi Variable 3.5 mph - N/A   Overcast
1:51 AM 25.0 °F - 21.9 °F 88% 30.14 in 10.0 mi Calm Calm - N/A   Overcast
2:51 AM 24.1 °F 19.7 °F 21.0 °F 88% 30.14 in 10.0 mi SSW 3.5 mph - N/A   Overcast
3:36 AM 24.8 °F 19.1 °F 21.2 °F 86% 30.07 in 10.0 mi WSW 4.6 mph - N/A   Overcast
3:51 AM 24.1 °F 18.2 °F 21.0 °F 88% 30.14 in 10.0 mi West 4.6 mph - N/A   Overcast
4:51 AM 23.0 °F 18.4 °F 21.0 °F 92% 30.16 in 10.0 mi SW 3.5 mph - N/A   Overcast
5:51 AM 21.9 °F 14.5 °F 19.9 °F 92% 30.19 in 10.0 mi Variable 5.8 mph - N/A   Overcast
6:51 AM 21.9 °F 13.4 °F 19.0 °F 89% 30.19 in 10.0 mi SSW 6.9 mph - N/A   Overcast
7:04 AM 21.2 °F 14.9 °F 17.6 °F 86% 30.11 in 10.0 mi WSW 4.6 mph - N/A   Overcast
7:51 AM 21.9 °F 11.0 °F 19.0 °F 89% 30.22 in 10.0 mi SSW 10.4 mph - N/A   Overcast
8:30 AM 21.2 °F 13.6 °F 19.4 °F 93% 30.14 in 10.0 mi SSW 5.8 mph - N/A   Overcast
8:51 AM 21.0 °F 16.2 °F 19.0 °F 92% 30.21 in 10.0 mi South 3.5 mph - N/A   Overcast
9:51 AM 21.9 °F - 19.0 °F 89% 30.21 in 10.0 mi Calm Calm - N/A   Overcast
10:38 AM 23.0 °F - 19.4 °F 86% 30.12 in 10.0 mi Calm Calm - N/A   Mostly Cloudy
10:51 AM 25.0 °F - 19.9 °F 81% 30.17 in 10.0 mi Calm Calm - N/A   Scattered Clouds
11:51 AM 28.0 °F 24.2 °F 21.9 °F 78% 30.11 in 10.0 mi NE 3.5 mph - 0.00 in   Clear
12:51 PM 30.9 °F 23.5 °F 25.0 °F 79% 30.05 in 10.0 mi NE 8.1 mph - N/A   Clear
1:51 PM 30.9 °F 26.2 °F 26.1 °F 82% 30.03 in 10.0 mi East 4.6 mph - 0.00 in   Clear
2:51 PM 30.0 °F 25.2 °F 25.0 °F 82% 30.05 in 10.0 mi ENE 4.6 mph - 0.00 in   Clear
4:51 PM 28.0 °F 18.6 °F 25.0 °F 88% 29.98 in 10.0 mi East 10.4 mph - N/A   Partly Cloudy
5:51 PM 27.0 °F 18.7 °F 24.1 °F 89% 29.95 in 10.0 mi ENE 8.1 mph - N/A   Partly Cloudy
6:51 PM 28.0 °F 21.7 °F 24.1 °F 85% 29.94 in 10.0 mi East 5.8 mph - N/A   Clear
7:51 PM 28.0 °F 24.2 °F 25.0 °F 88% 29.91 in 10.0 mi Variable 3.5 mph - N/A   Clear
8:51 PM 34.0 °F 26.6 °F 23.0 °F 64% 29.87 in 10.0 mi SE 9.2 mph - N/A   Scattered Clouds
9:51 PM 34.0 °F 25.5 °F 24.1 °F 67% 29.83 in 10.0 mi ESE 11.5 mph - N/A   Overcast
10:51 PM 33.1 °F 22.6 °F 26.1 °F 75% 29.81 in 10.0 mi South 16.1 mph 25.3 mph 0.00 in   Overcast
11:51 PM 34.0 °F 23.8 °F 27.0 °F 75% 29.74 in 10.0 mi South 16.1 mph 23.0 mph 0.00 in   Overcast